Flag for Pakistan Weather past 2 weeks in Islamabad, Pakistan

Now
88 °F

Passing clouds.


Feels Like: 93 °F
Forecast: 69 / 98 °F
Wind: 5 mph from South

Location: Islamabad Airport

Current Time: Aug 30, 2014 at 12:10:25 PM

Latest Report: Aug 30, 2014 at 11:00 AM


Visibility: 4 mi

Pressure: 29.80 "Hg

Humidity: 55%

Dew point: 70 °F

Location of IslamabadLocation

Historic Weather in Islamabad — Graph

°F

Islamabad temperature yesterday

Maximum temperature yesterday: 93 °F (at 3:00 PM)
Minimum temperature yesterday: 75 °F (at 6:00 AM)
Average temperature yesterday: 84 °F

Past Weeks' High & Low Weather Summary

 TemperatureHumidityPressure
High100 °F (Aug 18, 10:00 PM)94% (Aug 15, 11:00 PM)29.86 "Hg (Aug 15, 11:00 PM)
Low68 °F (Aug 22, 11:00 PM)37% (Aug 18, 10:00 PM)29.47 "Hg (Aug 15, 4:00 PM)
Average83 °F67%29.74 "Hg
* Reported Aug 15 11:00 AM — Aug 30 11:00 AM, Islamabad, Weather by CustomWeather, © 2014

Note: Actual official high and low records may vary slightly from our data, if they occured in-between our weather recording intervals... More about our weather records

Advertising

Islamabad weather history for previous 24 hours

 ConditionsComfort  
Time TempWeatherWind HumidityBarometerVisibility
11:00 AM
Aug 30
88 °FPassing clouds.5 mph55%29.80 "Hg4 mi
10:00 AM86 °FPassing clouds.5 mph62%29.83 "Hg4 mi
9:00 AM84 °FPassing clouds.5 mph62%29.83 "Hg4 mi
8:00 AM81 °FPassing clouds.5 mph66%29.83 "Hg4 mi
7:00 AM77 °FPassing clouds.5 mph74%29.80 "Hg4 mi
6:00 AM75 °FPassing clouds.7 mph74%29.80 "Hg4 mi
5:00 AM77 °FPassing clouds.7 mph74%29.77 "Hg4 mi
4:00 AM77 °FPassing clouds.5 mph79%29.77 "Hg4 mi
3:00 AM77 °FPassing clouds.5 mph79%29.77 "Hg4 mi
2:00 AM79 °FPassing clouds.5 mph74%29.77 "Hg4 mi
12:00 AM79 °FPassing clouds.5 mph74%29.77 "Hg4 mi
11:00 PM
Aug 29
84 °FPassing clouds.7 mph66%29.74 "Hg4 mi
10:00 PM84 °FPassing clouds.7 mph66%29.74 "Hg5 mi
9:00 PM86 °FPassing clouds.9 mph62%29.74 "Hg5 mi
8:00 PM88 °FPassing clouds.5 mph59%29.71 "Hg5 mi
6:00 PM91 °FPassing clouds.5 mph56%29.71 "HgN/A
5:00 PM91 °FPassing clouds.7 mph56%29.71 "HgN/A
4:00 PM93 °FPassing clouds.9 mph53%29.74 "HgN/A
3:00 PM93 °FPassing clouds.9 mph53%29.74 "Hg4 mi
2:00 PM91 °FHaze.9 mph52%29.77 "Hg4 mi
1:00 PM91 °FHaze.7 mph52%29.80 "Hg4 mi
12:00 PM90 °FHaze.12 mph52%29.80 "Hg4 mi
Weather by CustomWeather, © 2014

See weather overviewHow to use our weather pages